owner,sensor,date,latitude,longitude,vertical_datum,sea_water_practical_salinity,qcFlag 
DISL,ioos:station:DISL:CATA:1,2014-06-01T00:00:00Z,30.3085,-88.1395,2.209,8.5,1111122 
DISL,ioos:station:DISL:CATA:1,2014-06-01T00:30:00Z,30.3085,-88.1395,2.18,8.62,1111122 
DISL,ioos:station:DISL:CATA:1,2014-06-01T01:00:00Z,30.3085,-88.1395,2.142,8.6,1111122 
DISL,ioos:station:DISL:CATA:1,2014-06-01T01:30:00Z,30.3085,-88.1395,2.107,8.52,1111122 
DISL,ioos:station:DISL:CATA:1,2014-06-01T02:00:00Z,30.3085,-88.1395,2.084,8.52,1111122 
DISL,ioos:station:DISL:CATA:1,2014-06-01T02:30:00Z,30.3085,-88.1395,2.072,8.45,1111122 
DISL,ioos:station:DISL:CATA:1,2014-06-01T03:00:00Z,30.3085,-88.1395,2.102,8.36,1111122 
DISL,ioos:station:DISL:CATA:1,2014-06-01T03:30:00Z,30.3085,-88.1395,2.121,8.31,1111122 
DISL,ioos:station:DISL:CATA:1,2014-06-01T04:00:00Z,30.3085,-88.1395,2.118,8.3,1111122 
DISL,ioos:station:DISL:CATA:1,2014-06-01T04:30:00Z,30.3085,-88.1395,2.12,8.32,1111122 
DISL,ioos:station:DISL:CATA:1,2014-06-01T05:00:00Z,30.3085,-88.1395,2.099,8.35,1111122 
DISL,ioos:station:DISL:CATA:1,2014-06-01T05:30:00Z,30.3085,-88.1395,2.095,8.38,1111122 
DISL,ioos:station:DISL:CATA:1,2014-06-01T06:00:00Z,30.3085,-88.1395,2.101,8.46,1111122 
DISL,ioos:station:DISL:CATA:1,2014-06-01T06:30:00Z,30.3085,-88.1395,2.118,8.42,1111122 
DISL,ioos:station:DISL:CATA:1,2014-06-01T07:00:00Z,30.3085,-88.1395,2.131,8.29,1111122 
DISL,ioos:station:DISL:CATA:1,2014-06-01T07:30:00Z,30.3085,-88.1395,2.153,8.18,1111122 
DISL,ioos:station:DISL:CATA:1,2014-06-01T08:00:00Z,30.3085,-88.1395,2.174,8.11,1111122 
DISL,ioos:station:DISL:CATA:1,2014-06-01T08:30:00Z,30.3085,-88.1395,2.192,8.16,1111122 
DISL,ioos:station:DISL:CATA:1,2014-06-01T09:00:00Z,30.3085,-88.1395,2.215,8.31,1111122 
DISL,ioos:station:DISL:CATA:1,2014-06-01T09:30:00Z,30.3085,-88.1395,2.243,8.29,1111122 
DISL,ioos:station:DISL:CATA:1,2014-06-01T10:00:00Z,30.3085,-88.1395,2.278,8.26,1111122 
DISL,ioos:station:DISL:CATA:1,2014-06-01T10:30:00Z,30.3085,-88.1395,2.302,8.2,1111122 
DISL,ioos:station:DISL:CATA:1,2014-06-01T11:00:00Z,30.3085,-88.1395,2.315,8.19,1111122 
DISL,ioos:station:DISL:CATA:1,2014-06-01T11:30:00Z,30.3085,-88.1395,2.342,8.15,1111122 
DISL,ioos:station:DISL:CATA:1,2014-06-01T12:00:00Z,30.3085,-88.1395,2.357,8.16,1111122 
DISL,ioos:station:DISL:CATA:1,2014-06-01T12:30:00Z,30.3085,-88.1395,2.401,8.15,1111122 
DISL,ioos:station:DISL:CATA:1,2014-06-01T13:00:00Z,30.3085,-88.1395,2.42,8.24,1111122 
DISL,ioos:station:DISL:CATA:1,2014-06-01T13:30:00Z,30.3085,-88.1395,2.423,8.32,1111122 
DISL,ioos:station:DISL:CATA:1,2014-06-01T14:00:00Z,30.3085,-88.1395,2.45,8.51,1111122 
DISL,ioos:station:DISL:CATA:1,2014-06-01T14:30:00Z,30.3085,-88.1395,2.472,8.34,1111122 
DISL,ioos:station:DISL:CATA:1,2014-06-01T15:00:00Z,30.3085,-88.1395,2.509,8.32,1111122 
DISL,ioos:station:DISL:CATA:1,2014-06-01T15:30:00Z,30.3085,-88.1395,2.541,8.41,1111122 
DISL,ioos:station:DISL:CATA:1,2014-06-01T16:00:00Z,30.3085,-88.1395,2.542,8.49,1111122 
DISL,ioos:station:DISL:CATA:1,2014-06-01T16:30:00Z,30.3085,-88.1395,2.561,8.46,1111122 
DISL,ioos:station:DISL:CATA:1,2014-06-01T17:00:00Z,30.3085,-88.1395,2.561,8.36,1111122 
DISL,ioos:station:DISL:CATA:1,2014-06-01T17:30:00Z,30.3085,-88.1395,2.569,8.39,1111122 
DISL,ioos:station:DISL:CATA:1,2014-06-01T18:00:00Z,30.3085,-88.1395,2.563,8.46,1111122 
DISL,ioos:station:DISL:CATA:1,2014-06-01T18:30:00Z,30.3085,-88.1395,2.561,8.45,1111122 
DISL,ioos:station:DISL:CATA:1,2014-06-01T19:00:00Z,30.3085,-88.1395,2.557,8.39,1111122 
DISL,ioos:station:DISL:CATA:1,2014-06-01T19:30:00Z,30.3085,-88.1395,2.543,8.57,1111122 
DISL,ioos:station:DISL:CATA:1,2014-06-01T20:00:00Z,30.3085,-88.1395,2.532,8.96,1111122 
DISL,ioos:station:DISL:CATA:1,2014-06-01T20:30:00Z,30.3085,-88.1395,2.51,8.75,1111122 
DISL,ioos:station:DISL:CATA:1,2014-06-01T21:00:00Z,30.3085,-88.1395,2.475,8.34,1111122 
DISL,ioos:station:DISL:CATA:1,2014-06-01T21:30:00Z,30.3085,-88.1395,2.448,8.25,1111122 
DISL,ioos:station:DISL:CATA:1,2014-06-01T22:00:00Z,30.3085,-88.1395,2.409,8.33,1111122 
DISL,ioos:station:DISL:CATA:1,2014-06-01T22:30:00Z,30.3085,-88.1395,2.38,8.32,1111122 
DISL,ioos:station:DISL:CATA:1,2014-06-01T23:00:00Z,30.3085,-88.1395,2.339,8.32,1111122 
DISL,ioos:station:DISL:CATA:1,2014-06-01T23:30:00Z,30.3085,-88.1395,2.297,8.29,1111122 
DISL,ioos:station:DISL:CATA:1,2014-06-02T00:00:00Z,30.3085,-88.1395,2.241,8.1,1111122 
DISL,ioos:station:DISL:CATA:1,2014-06-02T00:30:00Z,30.3085,-88.1395,2.207,7.94,1111122 
DISL,ioos:station:DISL:CATA:1,2014-06-02T01:00:00Z,30.3085,-88.1395,2.176,7.88,1111122 
DISL,ioos:station:DISL:CATA:1,2014-06-02T01:30:00Z,30.3085,-88.1395,2.142,7.82,1111122 
DISL,ioos:station:DISL:CATA:1,2014-06-02T02:00:00Z,30.3085,-88.1395,2.13,7.79,1111122 
DISL,ioos:station:DISL:CATA:1,2014-06-02T02:30:00Z,30.3085,-88.1395,2.123,8.01,1111122 
DISL,ioos:station:DISL:CATA:1,2014-06-02T03:00:00Z,30.3085,-88.1395,2.128,8.11,1111122 
DISL,ioos:station:DISL:CATA:1,2014-06-02T03:30:00Z,30.3085,-88.1395,2.127,8.31,1111122 
DISL,ioos:station:DISL:CATA:1,2014-06-02T04:00:00Z,30.3085,-88.1395,2.139,8.46,1111122 
DISL,ioos:station:DISL:CATA:1,2014-06-02T04:30:00Z,30.3085,-88.1395,2.134,8.57,1111122 
DISL,ioos:station:DISL:CATA:1,2014-06-02T05:00:00Z,30.3085,-88.1395,2.13,8.09,1111122 
DISL,ioos:station:DISL:CATA:1,2014-06-02T05:30:00Z,30.3085,-88.1395,2.136,8.98,1111122 
DISL,ioos:station:DISL:CATA:1,2014-06-02T06:00:00Z,30.3085,-88.1395,2.15,9.07,1111122 
DISL,ioos:station:DISL:CATA:1,2014-06-02T06:30:00Z,30.3085,-88.1395,2.151,9.11,1111122 
DISL,ioos:station:DISL:CATA:1,2014-06-02T07:00:00Z,30.3085,-88.1395,2.163,10.31,1111122 
DISL,ioos:station:DISL:CATA:1,2014-06-02T07:30:00Z,30.3085,-88.1395,2.165,11.53,1111122 
DISL,ioos:station:DISL:CATA:1,2014-06-02T08:00:00Z,30.3085,-88.1395,2.18,11.99,1111122 
DISL,ioos:station:DISL:CATA:1,2014-06-02T08:30:00Z,30.3085,-88.1395,2.208,11.88,1111122 
DISL,ioos:station:DISL:CATA:1,2014-06-02T09:00:00Z,30.3085,-88.1395,2.242,11.76,1111122 
DISL,ioos:station:DISL:CATA:1,2014-06-02T09:30:00Z,30.3085,-88.1395,2.269,11.66,1111122 
DISL,ioos:station:DISL:CATA:1,2014-06-02T10:00:00Z,30.3085,-88.1395,2.288,11.32,1111122 
DISL,ioos:station:DISL:CATA:1,2014-06-02T10:30:00Z,30.3085,-88.1395,2.304,11.19,1111122 
DISL,ioos:station:DISL:CATA:1,2014-06-02T11:00:00Z,30.3085,-88.1395,2.317,11.06,1111122 
DISL,ioos:station:DISL:CATA:1,2014-06-02T11:30:00Z,30.3085,-88.1395,2.326,11.01,1111122 
DISL,ioos:station:DISL:CATA:1,2014-06-02T12:00:00Z,30.3085,-88.1395,2.339,10.86,1111122 
DISL,ioos:station:DISL:CATA:1,2014-06-02T12:30:00Z,30.3085,-88.1395,2.345,10.88,1111122 
DISL,ioos:station:DISL:CATA:1,2014-06-02T13:00:00Z,30.3085,-88.1395,2.359,10.8,1111122 
DISL,ioos:station:DISL:CATA:1,2014-06-02T13:30:00Z,30.3085,-88.1395,2.369,10.78,1111122 
DISL,ioos:station:DISL:CATA:1,2014-06-02T14:00:00Z,30.3085,-88.1395,2.376,10.67,1111122 
DISL,ioos:station:DISL:CATA:1,2014-06-02T14:30:00Z,30.3085,-88.1395,2.404,10.6,1111122 
DISL,ioos:station:DISL:CATA:1,2014-06-02T15:00:00Z,30.3085,-88.1395,2.443,10.53,1111122 
DISL,ioos:station:DISL:CATA:1,2014-06-02T15:30:00Z,30.3085,-88.1395,2.463,10.46,1111122 
DISL,ioos:station:DISL:CATA:1,2014-06-02T16:00:00Z,30.3085,-88.1395,2.495,10.4,1111122 
DISL,ioos:station:DISL:CATA:1,2014-06-02T16:30:00Z,30.3085,-88.1395,2.508,10.31,1111122 
DISL,ioos:station:DISL:CATA:1,2014-06-02T17:00:00Z,30.3085,-88.1395,2.536,10.21,1111122 
DISL,ioos:station:DISL:CATA:1,2014-06-02T17:30:00Z,30.3085,-88.1395,2.557,9.94,1111122 
DISL,ioos:station:DISL:CATA:1,2014-06-02T18:00:00Z,30.3085,-88.1395,2.567,9.76,1111122 
DISL,ioos:station:DISL:CATA:1,2014-06-02T18:30:00Z,30.3085,-88.1395,2.581,9.68,1111122 
DISL,ioos:station:DISL:CATA:1,2014-06-02T19:00:00Z,30.3085,-88.1395,2.584,9.53,1111122 
DISL,ioos:station:DISL:CATA:1,2014-06-02T19:30:00Z,30.3085,-88.1395,2.576,9.21,1111122 
DISL,ioos:station:DISL:CATA:1,2014-06-02T20:00:00Z,30.3085,-88.1395,2.559,9.22,1111122 
DISL,ioos:station:DISL:CATA:1,2014-06-02T20:30:00Z,30.3085,-88.1395,2.538,9.24,1111122 
DISL,ioos:station:DISL:CATA:1,2014-06-02T21:00:00Z,30.3085,-88.1395,2.53,9.26,1111122 
DISL,ioos:station:DISL:CATA:1,2014-06-02T21:30:00Z,30.3085,-88.1395,2.524,9.65,1111122 
DISL,ioos:station:DISL:CATA:1,2014-06-02T22:00:00Z,30.3085,-88.1395,2.495,9.48,1111122 
DISL,ioos:station:DISL:CATA:1,2014-06-02T22:30:00Z,30.3085,-88.1395,2.47,9.5,1111122 
DISL,ioos:station:DISL:CATA:1,2014-06-02T23:00:00Z,30.3085,-88.1395,2.452,9.48,1111122 
DISL,ioos:station:DISL:CATA:1,2014-06-02T23:30:00Z,30.3085,-88.1395,2.425,9.64,1111122 
DISL,ioos:station:DISL:CATA:1,2014-06-03T00:00:00Z,30.3085,-88.1395,2.399,9.3,1111122 
DISL,ioos:station:DISL:CATA:1,2014-06-03T00:30:00Z,30.3085,-88.1395,2.382,9.17,1111122 
DISL,ioos:station:DISL:CATA:1,2014-06-03T01:00:00Z,30.3085,-88.1395,2.345,9.1,1111122 
DISL,ioos:station:DISL:CATA:1,2014-06-03T01:30:00Z,30.3085,-88.1395,2.313,8.93,1111122 
DISL,ioos:station:DISL:CATA:1,2014-06-03T02:00:00Z,30.3085,-88.1395,2.286,8.8,1111122 
DISL,ioos:station:DISL:CATA:1,2014-06-03T02:30:00Z,30.3085,-88.1395,2.253,8.74,1111122 
DISL,ioos:station:DISL:CATA:1,2014-06-03T03:00:00Z,30.3085,-88.1395,2.222,9.1,1111122 
DISL,ioos:station:DISL:CATA:1,2014-06-03T03:30:00Z,30.3085,-88.1395,2.208,9.6,1111122 
DISL,ioos:station:DISL:CATA:1,2014-06-03T04:00:00Z,30.3085,-88.1395,2.201,10.96,1111122 
DISL,ioos:station:DISL:CATA:1,2014-06-03T04:30:00Z,30.3085,-88.1395,2.219,11.63,1111122 
DISL,ioos:station:DISL:CATA:1,2014-06-03T05:00:00Z,30.3085,-88.1395,2.242,12.0,1111122 
DISL,ioos:station:DISL:CATA:1,2014-06-03T05:30:00Z,30.3085,-88.1395,2.245,12.34,1111122 
DISL,ioos:station:DISL:CATA:1,2014-06-03T06:00:00Z,30.3085,-88.1395,2.252,13.11,1111122 
DISL,ioos:station:DISL:CATA:1,2014-06-03T06:30:00Z,30.3085,-88.1395,2.271,13.45,1111122 
DISL,ioos:station:DISL:CATA:1,2014-06-03T07:00:00Z,30.3085,-88.1395,2.266,13.44,1111122 
DISL,ioos:station:DISL:CATA:1,2014-06-03T07:30:00Z,30.3085,-88.1395,2.272,13.14,1111122 
DISL,ioos:station:DISL:CATA:1,2014-06-03T08:00:00Z,30.3085,-88.1395,2.274,11.87,1111122 
DISL,ioos:station:DISL:CATA:1,2014-06-03T08:30:00Z,30.3085,-88.1395,2.275,11.73,1111122 
DISL,ioos:station:DISL:CATA:1,2014-06-03T09:00:00Z,30.3085,-88.1395,2.293,11.55,1111122 
DISL,ioos:station:DISL:CATA:1,2014-06-03T09:30:00Z,30.3085,-88.1395,2.31,11.14,1111122 
DISL,ioos:station:DISL:CATA:1,2014-06-03T10:00:00Z,30.3085,-88.1395,2.342,11.24,1111122 
DISL,ioos:station:DISL:CATA:1,2014-06-03T10:30:00Z,30.3085,-88.1395,2.39,10.95,1111122 
DISL,ioos:station:DISL:CATA:1,2014-06-03T11:00:00Z,30.3085,-88.1395,2.394,9.96,1111122 
DISL,ioos:station:DISL:CATA:1,2014-06-03T11:30:00Z,30.3085,-88.1395,2.392,10.03,1111122 
DISL,ioos:station:DISL:CATA:1,2014-06-03T12:00:00Z,30.3085,-88.1395,2.39,9.57,1111122 
DISL,ioos:station:DISL:CATA:1,2014-06-03T12:30:00Z,30.3085,-88.1395,2.404,9.51,1111122 
DISL,ioos:station:DISL:CATA:1,2014-06-03T13:00:00Z,30.3085,-88.1395,2.44,9.28,1111122 
DISL,ioos:station:DISL:CATA:1,2014-06-03T13:30:00Z,30.3085,-88.1395,2.465,9.01,1111122 
DISL,ioos:station:DISL:CATA:1,2014-06-03T14:00:00Z,30.3085,-88.1395,2.486,8.86,1111122 
DISL,ioos:station:DISL:CATA:1,2014-06-03T14:30:00Z,30.3085,-88.1395,2.51,8.92,1111122 
DISL,ioos:station:DISL:CATA:1,2014-06-03T15:00:00Z,30.3085,-88.1395,2.506,8.93,1111122 
DISL,ioos:station:DISL:CATA:1,2014-06-03T15:30:00Z,30.3085,-88.1395,2.511,9.02,1111122 
DISL,ioos:station:DISL:CATA:1,2014-06-03T16:00:00Z,30.3085,-88.1395,2.532,9.16,1111122 
DISL,ioos:station:DISL:CATA:1,2014-06-03T16:30:00Z,30.3085,-88.1395,2.549,9.17,1111122 
DISL,ioos:station:DISL:CATA:1,2014-06-03T17:00:00Z,30.3085,-88.1395,2.56,9.42,1111122 
DISL,ioos:station:DISL:CATA:1,2014-06-03T17:30:00Z,30.3085,-88.1395,2.573,9.5,1111122 
DISL,ioos:station:DISL:CATA:1,2014-06-03T18:00:00Z,30.3085,-88.1395,2.572,9.52,1111122 
DISL,ioos:station:DISL:CATA:1,2014-06-03T18:30:00Z,30.3085,-88.1395,2.578,9.76,1111122 
DISL,ioos:station:DISL:CATA:1,2014-06-03T19:00:00Z,30.3085,-88.1395,2.571,9.86,1111122 
DISL,ioos:station:DISL:CATA:1,2014-06-03T19:30:00Z,30.3085,-88.1395,2.569,10.35,1111122 
DISL,ioos:station:DISL:CATA:1,2014-06-03T20:00:00Z,30.3085,-88.1395,2.552,9.97,1111122 
DISL,ioos:station:DISL:CATA:1,2014-06-03T20:30:00Z,30.3085,-88.1395,2.544,9.04,1111122 
DISL,ioos:station:DISL:CATA:1,2014-06-03T21:00:00Z,30.3085,-88.1395,2.533,8.86,1111122 
DISL,ioos:station:DISL:CATA:1,2014-06-03T21:30:00Z,30.3085,-88.1395,2.519,9.02,1111122 
DISL,ioos:station:DISL:CATA:1,2014-06-03T22:00:00Z,30.3085,-88.1395,2.5,8.98,1111122 
DISL,ioos:station:DISL:CATA:1,2014-06-03T22:30:00Z,30.3085,-88.1395,2.479,8.93,1111122 
DISL,ioos:station:DISL:CATA:1,2014-06-03T23:00:00Z,30.3085,-88.1395,2.457,8.87,1111122 
DISL,ioos:station:DISL:CATA:1,2014-06-03T23:30:00Z,30.3085,-88.1395,2.442,8.82,1111122 
DISL,ioos:station:DISL:CATA:1,2014-06-04T00:00:00Z,30.3085,-88.1395,2.416,8.9,1111122 
DISL,ioos:station:DISL:CATA:1,2014-06-04T00:30:00Z,30.3085,-88.1395,2.388,9.1,1111122 
DISL,ioos:station:DISL:CATA:1,2014-06-04T01:00:00Z,30.3085,-88.1395,2.367,9.15,1111122 
DISL,ioos:station:DISL:CATA:1,2014-06-04T01:30:00Z,30.3085,-88.1395,2.349,9.08,1111122 
DISL,ioos:station:DISL:CATA:1,2014-06-04T02:00:00Z,30.3085,-88.1395,2.317,9.03,1111122 
DISL,ioos:station:DISL:CATA:1,2014-06-04T02:30:00Z,30.3085,-88.1395,2.302,9.03,1111122 
DISL,ioos:station:DISL:CATA:1,2014-06-04T03:00:00Z,30.3085,-88.1395,2.287,8.96,1111122 
DISL,ioos:station:DISL:CATA:1,2014-06-04T03:30:00Z,30.3085,-88.1395,2.274,8.69,1111122 
DISL,ioos:station:DISL:CATA:1,2014-06-04T04:00:00Z,30.3085,-88.1395,2.269,8.47,1111122 
DISL,ioos:station:DISL:CATA:1,2014-06-04T04:30:00Z,30.3085,-88.1395,2.268,8.62,1111122 
DISL,ioos:station:DISL:CATA:1,2014-06-04T05:00:00Z,30.3085,-88.1395,2.276,8.5,1111122 
DISL,ioos:station:DISL:CATA:1,2014-06-04T05:30:00Z,30.3085,-88.1395,2.286,8.39,1111122 
DISL,ioos:station:DISL:CATA:1,2014-06-04T06:00:00Z,30.3085,-88.1395,2.285,8.34,1111122 
DISL,ioos:station:DISL:CATA:1,2014-06-04T06:30:00Z,30.3085,-88.1395,2.292,8.48,1111122 
DISL,ioos:station:DISL:CATA:1,2014-06-04T07:00:00Z,30.3085,-88.1395,2.3,8.44,1111122 
DISL,ioos:station:DISL:CATA:1,2014-06-04T07:30:00Z,30.3085,-88.1395,2.312,8.4,1111122 
DISL,ioos:station:DISL:CATA:1,2014-06-04T08:00:00Z,30.3085,-88.1395,2.325,8.43,1111122 
DISL,ioos:station:DISL:CATA:1,2014-06-04T08:30:00Z,30.3085,-88.1395,2.334,8.44,1111122 
DISL,ioos:station:DISL:CATA:1,2014-06-04T09:00:00Z,30.3085,-88.1395,2.345,8.37,1111122 
DISL,ioos:station:DISL:CATA:1,2014-06-04T09:30:00Z,30.3085,-88.1395,2.359,8.34,1111122 
DISL,ioos:station:DISL:CATA:1,2014-06-04T10:00:00Z,30.3085,-88.1395,2.371,8.36,1111122 
DISL,ioos:station:DISL:CATA:1,2014-06-04T10:30:00Z,30.3085,-88.1395,2.38,8.42,1111122 
DISL,ioos:station:DISL:CATA:1,2014-06-04T11:00:00Z,30.3085,-88.1395,2.39,8.41,1111122 
DISL,ioos:station:DISL:CATA:1,2014-06-04T11:30:00Z,30.3085,-88.1395,2.413,8.43,1111122 
DISL,ioos:station:DISL:CATA:1,2014-06-04T12:00:00Z,30.3085,-88.1395,2.42,8.43,1111122 
DISL,ioos:station:DISL:CATA:1,2014-06-04T12:30:00Z,30.3085,-88.1395,2.439,8.4,1111122 
DISL,ioos:station:DISL:CATA:1,2014-06-04T13:00:00Z,30.3085,-88.1395,2.449,8.43,1111122 
DISL,ioos:station:DISL:CATA:1,2014-06-04T13:30:00Z,30.3085,-88.1395,2.463,8.42,1111122 
DISL,ioos:station:DISL:CATA:1,2014-06-04T14:00:00Z,30.3085,-88.1395,2.468,8.38,1111122 
DISL,ioos:station:DISL:CATA:1,2014-06-04T14:30:00Z,30.3085,-88.1395,2.474,8.45,1111122 
DISL,ioos:station:DISL:CATA:1,2014-06-04T15:00:00Z,30.3085,-88.1395,2.481,8.46,1111122 
DISL,ioos:station:DISL:CATA:1,2014-06-04T15:30:00Z,30.3085,-88.1395,2.486,8.46,1111122 
DISL,ioos:station:DISL:CATA:1,2014-06-04T16:00:00Z,30.3085,-88.1395,2.502,8.46,1111122 
DISL,ioos:station:DISL:CATA:1,2014-06-04T16:30:00Z,30.3085,-88.1395,2.501,8.58,1111122 
DISL,ioos:station:DISL:CATA:1,2014-06-04T17:00:00Z,30.3085,-88.1395,2.507,8.49,1111122 
DISL,ioos:station:DISL:CATA:1,2014-06-04T17:30:00Z,30.3085,-88.1395,2.52,8.45,1111122 
DISL,ioos:station:DISL:CATA:1,2014-06-04T18:00:00Z,30.3085,-88.1395,2.531,8.66,1111122 
DISL,ioos:station:DISL:CATA:1,2014-06-04T18:30:00Z,30.3085,-88.1395,2.526,8.62,1111122 
DISL,ioos:station:DISL:CATA:1,2014-06-04T19:00:00Z,30.3085,-88.1395,2.515,8.51,1111122 
DISL,ioos:station:DISL:CATA:1,2014-06-04T19:30:00Z,30.3085,-88.1395,2.502,8.6,1111122 
DISL,ioos:station:DISL:CATA:1,2014-06-04T20:00:00Z,30.3085,-88.1395,2.49,8.83,1111122 
DISL,ioos:station:DISL:CATA:1,2014-06-04T20:30:00Z,30.3085,-88.1395,2.48,8.91,1111122 
DISL,ioos:station:DISL:CATA:1,2014-06-04T21:00:00Z,30.3085,-88.1395,2.463,8.92,1111122 
DISL,ioos:station:DISL:CATA:1,2014-06-04T21:30:00Z,30.3085,-88.1395,2.452,9.0,1111122 
DISL,ioos:station:DISL:CATA:1,2014-06-04T22:00:00Z,30.3085,-88.1395,2.432,8.92,1111122 
DISL,ioos:station:DISL:CATA:1,2014-06-04T22:30:00Z,30.3085,-88.1395,2.42,9.1,1111122 
DISL,ioos:station:DISL:CATA:1,2014-06-04T23:00:00Z,30.3085,-88.1395,2.407,9.04,1111122 
DISL,ioos:station:DISL:CATA:1,2014-06-04T23:30:00Z,30.3085,-88.1395,2.402,9.0,1111122 
DISL,ioos:station:DISL:CATA:1,2014-06-05T00:00:00Z,30.3085,-88.1395,2.385,8.98,1111122 
DISL,ioos:station:DISL:CATA:1,2014-06-05T00:30:00Z,30.3085,-88.1395,2.368,9.05,1111122 
DISL,ioos:station:DISL:CATA:1,2014-06-05T01:00:00Z,30.3085,-88.1395,2.353,9.03,1111122 
DISL,ioos:station:DISL:CATA:1,2014-06-05T01:30:00Z,30.3085,-88.1395,2.336,9.03,1111122 
DISL,ioos:station:DISL:CATA:1,2014-06-05T02:00:00Z,30.3085,-88.1395,2.324,9.03,1111122 
DISL,ioos:station:DISL:CATA:1,2014-06-05T02:30:00Z,30.3085,-88.1395,2.313,9.03,1111122 
DISL,ioos:station:DISL:CATA:1,2014-06-05T03:00:00Z,30.3085,-88.1395,2.304,9.03,1111122 
DISL,ioos:station:DISL:CATA:1,2014-06-05T03:30:00Z,30.3085,-88.1395,2.293,9.05,1111122 
DISL,ioos:station:DISL:CATA:1,2014-06-05T04:00:00Z,30.3085,-88.1395,2.288,9.02,1111122 
DISL,ioos:station:DISL:CATA:1,2014-06-05T04:30:00Z,30.3085,-88.1395,2.279,8.96,1111122 
DISL,ioos:station:DISL:CATA:1,2014-06-05T05:00:00Z,30.3085,-88.1395,2.277,8.83,1111122 
DISL,ioos:station:DISL:CATA:1,2014-06-05T05:30:00Z,30.3085,-88.1395,2.277,8.71,1111122 
DISL,ioos:station:DISL:CATA:1,2014-06-05T06:00:00Z,30.3085,-88.1395,2.284,8.65,1111122 
DISL,ioos:station:DISL:CATA:1,2014-06-05T06:30:00Z,30.3085,-88.1395,2.295,8.62,1111122 
DISL,ioos:station:DISL:CATA:1,2014-06-05T07:00:00Z,30.3085,-88.1395,2.303,8.61,1111122 
DISL,ioos:station:DISL:CATA:1,2014-06-05T07:30:00Z,30.3085,-88.1395,2.311,8.6,1111122 
DISL,ioos:station:DISL:CATA:1,2014-06-05T08:00:00Z,30.3085,-88.1395,2.319,8.69,1111122 
DISL,ioos:station:DISL:CATA:1,2014-06-05T08:30:00Z,30.3085,-88.1395,2.33,8.74,1111122 
DISL,ioos:station:DISL:CATA:1,2014-06-05T09:00:00Z,30.3085,-88.1395,2.33,8.8,1111122 
DISL,ioos:station:DISL:CATA:1,2014-06-05T09:30:00Z,30.3085,-88.1395,2.335,8.91,1111122 
DISL,ioos:station:DISL:CATA:1,2014-06-05T10:00:00Z,30.3085,-88.1395,2.341,8.98,1111122 
DISL,ioos:station:DISL:CATA:1,2014-06-05T10:30:00Z,30.3085,-88.1395,2.354,9.04,1111122 
DISL,ioos:station:DISL:CATA:1,2014-06-05T11:00:00Z,30.3085,-88.1395,2.363,9.04,1111122 
DISL,ioos:station:DISL:CATA:1,2014-06-05T11:30:00Z,30.3085,-88.1395,2.374,9.03,1111122 
DISL,ioos:station:DISL:CATA:1,2014-06-05T12:00:00Z,30.3085,-88.1395,2.388,9.02,1111122 
DISL,ioos:station:DISL:CATA:1,2014-06-05T12:30:00Z,30.3085,-88.1395,2.403,8.96,1111122 
DISL,ioos:station:DISL:CATA:1,2014-06-05T13:00:00Z,30.3085,-88.1395,2.409,8.96,1111122 
DISL,ioos:station:DISL:CATA:1,2014-06-05T13:30:00Z,30.3085,-88.1395,2.423,8.9,1111122 
DISL,ioos:station:DISL:CATA:1,2014-06-05T14:00:00Z,30.3085,-88.1395,2.436,8.84,1111122 
DISL,ioos:station:DISL:CATA:1,2014-06-05T14:30:00Z,30.3085,-88.1395,2.44,8.8,1111122 
DISL,ioos:station:DISL:CATA:1,2014-06-05T15:00:00Z,30.3085,-88.1395,2.444,8.8,1111122 
DISL,ioos:station:DISL:CATA:1,2014-06-05T15:30:00Z,30.3085,-88.1395,2.447,8.82,1111122 
DISL,ioos:station:DISL:CATA:1,2014-06-05T16:00:00Z,30.3085,-88.1395,2.459,9.48,1111122 
DISL,ioos:station:DISL:CATA:1,2014-06-05T16:30:00Z,30.3085,-88.1395,2.46,11.97,1111122 
DISL,ioos:station:DISL:CATA:1,2014-06-05T17:00:00Z,30.3085,-88.1395,2.458,13.42,1111122 
DISL,ioos:station:DISL:CATA:1,2014-06-05T17:30:00Z,30.3085,-88.1395,2.463,13.07,1111122 
DISL,ioos:station:DISL:CATA:1,2014-06-05T18:00:00Z,30.3085,-88.1395,2.458,13.6,1111122 
DISL,ioos:station:DISL:CATA:1,2014-06-05T18:30:00Z,30.3085,-88.1395,2.454,13.93,1111122 
DISL,ioos:station:DISL:CATA:1,2014-06-05T19:00:00Z,30.3085,-88.1395,2.454,13.63,1111122 
DISL,ioos:station:DISL:CATA:1,2014-06-05T19:30:00Z,30.3085,-88.1395,2.449,13.79,1111122 
DISL,ioos:station:DISL:CATA:1,2014-06-05T20:00:00Z,30.3085,-88.1395,2.442,9.57,1111122 
DISL,ioos:station:DISL:CATA:1,2014-06-05T20:30:00Z,30.3085,-88.1395,2.434,9.68,1111122 
DISL,ioos:station:DISL:CATA:1,2014-06-05T21:00:00Z,30.3085,-88.1395,2.431,12.38,1111122 
DISL,ioos:station:DISL:CATA:1,2014-06-05T21:30:00Z,30.3085,-88.1395,2.424,13.99,1111122 
DISL,ioos:station:DISL:CATA:1,2014-06-05T22:00:00Z,30.3085,-88.1395,2.418,14.22,1111122 
DISL,ioos:station:DISL:CATA:1,2014-06-05T22:30:00Z,30.3085,-88.1395,2.412,14.03,1111122 
DISL,ioos:station:DISL:CATA:1,2014-06-05T23:00:00Z,30.3085,-88.1395,2.389,13.86,1111122 
DISL,ioos:station:DISL:CATA:1,2014-06-05T23:30:00Z,30.3085,-88.1395,2.391,14.39,1111122 
DISL,ioos:station:DISL:CATA:1,2014-06-06T00:00:00Z,30.3085,-88.1395,2.376,14.2,1111122 
DISL,ioos:station:DISL:CATA:1,2014-06-06T00:30:00Z,30.3085,-88.1395,2.355,14.22,1111122 
DISL,ioos:station:DISL:CATA:1,2014-06-06T01:00:00Z,30.3085,-88.1395,2.356,12.94,1111122 
DISL,ioos:station:DISL:CATA:1,2014-06-06T01:30:00Z,30.3085,-88.1395,2.353,12.39,1111122 
DISL,ioos:station:DISL:CATA:1,2014-06-06T02:00:00Z,30.3085,-88.1395,2.327,11.48,1111122 
DISL,ioos:station:DISL:CATA:1,2014-06-06T02:30:00Z,30.3085,-88.1395,2.313,10.14,1111122 
DISL,ioos:station:DISL:CATA:1,2014-06-06T03:00:00Z,30.3085,-88.1395,2.31,9.46,1111122 
DISL,ioos:station:DISL:CATA:1,2014-06-06T03:30:00Z,30.3085,-88.1395,2.319,9.38,1111122 
DISL,ioos:station:DISL:CATA:1,2014-06-06T04:00:00Z,30.3085,-88.1395,2.325,10.49,1111122 
DISL,ioos:station:DISL:CATA:1,2014-06-06T04:30:00Z,30.3085,-88.1395,2.33,9.55,1111122 
DISL,ioos:station:DISL:CATA:1,2014-06-06T05:00:00Z,30.3085,-88.1395,2.354,8.93,1111122 
DISL,ioos:station:DISL:CATA:1,2014-06-06T05:30:00Z,30.3085,-88.1395,2.36,9.04,1111122 
DISL,ioos:station:DISL:CATA:1,2014-06-06T06:00:00Z,30.3085,-88.1395,2.372,8.9,1111122 
DISL,ioos:station:DISL:CATA:1,2014-06-06T06:30:00Z,30.3085,-88.1395,2.373,8.98,1111122 
DISL,ioos:station:DISL:CATA:1,2014-06-06T07:00:00Z,30.3085,-88.1395,2.378,9.04,1111122 
DISL,ioos:station:DISL:CATA:1,2014-06-06T07:30:00Z,30.3085,-88.1395,2.388,9.12,1111122 
DISL,ioos:station:DISL:CATA:1,2014-06-06T08:00:00Z,30.3085,-88.1395,2.376,9.08,1111122 
DISL,ioos:station:DISL:CATA:1,2014-06-06T08:30:00Z,30.3085,-88.1395,2.383,9.08,1111122 
DISL,ioos:station:DISL:CATA:1,2014-06-06T09:00:00Z,30.3085,-88.1395,2.381,9.13,1111122 
DISL,ioos:station:DISL:CATA:1,2014-06-06T09:30:00Z,30.3085,-88.1395,2.391,9.45,1111122 
DISL,ioos:station:DISL:CATA:1,2014-06-06T10:00:00Z,30.3085,-88.1395,2.388,9.64,1111122 
DISL,ioos:station:DISL:CATA:1,2014-06-06T10:30:00Z,30.3085,-88.1395,2.392,10.04,1111122 
DISL,ioos:station:DISL:CATA:1,2014-06-06T11:00:00Z,30.3085,-88.1395,2.401,10.26,1111122 
DISL,ioos:station:DISL:CATA:1,2014-06-06T11:30:00Z,30.3085,-88.1395,2.405,10.42,1111122 
DISL,ioos:station:DISL:CATA:1,2014-06-06T12:00:00Z,30.3085,-88.1395,2.399,10.57,1111122 
DISL,ioos:station:DISL:CATA:1,2014-06-06T12:30:00Z,30.3085,-88.1395,2.388,10.63,1111122 
DISL,ioos:station:DISL:CATA:1,2014-06-06T13:00:00Z,30.3085,-88.1395,2.39,10.66,1111122 
DISL,ioos:station:DISL:CATA:1,2014-06-06T13:30:00Z,30.3085,-88.1395,2.387,10.69,1111122 
DISL,ioos:station:DISL:CATA:1,2014-06-06T14:00:00Z,30.3085,-88.1395,2.383,10.66,1111122 
DISL,ioos:station:DISL:CATA:1,2014-06-06T14:30:00Z,30.3085,-88.1395,2.381,10.68,1111122 
DISL,ioos:station:DISL:CATA:1,2014-06-06T15:00:00Z,30.3085,-88.1395,2.38,10.71,1111122 